[[{"header":{"parameterUnit":"m.s-1","parameterCategory":1,"la1":30.2991,"la2":30.254,"lo1":-89.0895,"lo2":-89.0444,"dy":0.0017,"dx":0.0017,"nx":28,"ny":28,"refTime":"2024-02-12T03:00:00:Z","depth":0,"parameterNumber":2,"parameterNumberName":"U-component_of_WINDS"},"data":[0,0,0,0,0,0,0,0,0,0,0,0,0,0,0,0,0,0,0,0,0,0,0,0,0,0,0,0,0,0,0,0,0,0,0,0,0,0,0,0,0,0,0,0,0,0,0,0,0,0,0,0,0,0,0,0,0,0,-1.918,-1.9181,0,-1.9334,-1.9336,-1.9338,-1.9396,-1.9395,-1.9395,-1.9394,-1.9554,-1.9558,-1.9563,0,0,0,0,0,0,0,0,0,0,0,0,0,-1.8936,-1.894,-1.918,-1.9182,-1.9184,-1.9334,-1.9336,-1.9338,-1.9396,-1.9395,-1.9395,-1.9394,-1.9552,-1.9558,-1.9563,0,0,0,0,0,0,0,0,0,0,0,0,0,-1.9061,-1.8942,-1.9179,-1.923,-1.9237,-1.9334,-1.9336,-1.9339,-1.9396,-1.9395,-1.9395,-1.9394,-1.955,-1.9557,-1.9564,-1.9622,0,0,-1.9585,-1.9588,0,0,0,0,0,0,0,0,-1.9054,-1.907,-1.9221,-1.9227,-1.9234,-1.9345,-1.9309,-1.9434,-1.9396,-1.9336,-1.9394,-1.9394,-1.9485,-1.9497,-1.9528,-1.9629,-1.9636,-1.9586,-1.959,-1.9593,-1.9595,0,0,0,0,0,0,0,-1.9046,-1.9064,-1.9241,-1.9223,-1.9231,-1.9246,-1.9263,-1.9333,-1.9412,-1.9341,-1.9345,-1.9363,-1.9488,-1.9521,-1.9532,-1.9638,-1.9586,-1.9592,-1.9596,-1.9599,-1.9796,-1.9797,0,0,0,0,0,0,-1.9028,-1.9056,-1.9236,-1.9246,-1.9141,-1.9251,-1.927,-1.931,-1.9412,-1.9427,-1.9363,-1.9365,-1.9509,-1.9524,-1.9538,-1.9612,-1.9593,-1.96,-1.9604,-1.9795,-1.9796,-1.9797,0,0,0,0,0,0,-1.9023,-1.9044,-1.923,-1.9152,-1.9177,-1.9256,-1.9301,-1.9314,-1.9346,-1.9429,-1.9443,-1.9382,-1.9509,-1.9528,-1.9601,-1.9619,-1.9603,-1.9609,-1.9794,-1.9795,-1.9797,-1.9761,0,0,0,0,0,0,-1.9016,-1.9041,-1.9064,-1.9152,-1.9181,-1.9289,-1.9302,-1.9317,-1.9358,-1.9362,-1.945,-1.9464,-1.951,-1.959,-1.9608,-1.9628,-1.9615,-1.9792,-1.9794,-1.9796,-1.9761,-1.9761,-1.9761,0,0,0,0,0,-1.9007,-1.9048,-1.9064,-1.9086,-1.921,-1.929,-1.9307,-1.9359,-1.9359,-1.9383,-1.9436,-1.9461,-1.9614,-1.9597,-1.9617,-1.964,-1.9792,-1.9794,-1.9796,-1.9761,-1.9761,-1.9761,0,0,0,0,0,0,-1.8959,-1.906,-1.908,-1.9151,-1.9211,-1.93,-1.933,-1.9357,-1.9419,-1.942,-1.9482,-1.9502,-1.9569,-1.9612,-1.9591,-1.9702,-1.9705,-1.9711,-1.9671,-1.9672,-1.9672,-1.966,-1.9621,0,0,0,0,0,-1.8957,-1.9012,-1.9098,-1.9152,-1.9182,-1.9251,-1.9287,-1.9322,-1.9388,-1.9414,-1.9472,-1.9535,-1.9598,-1.9637,-1.9699,-1.9768,-1.9788,-1.9794,-1.9794,-1.9794,-1.9798,-1.9839,-1.9842,-1.9805,-1.9805,-1.9805,0,0,-1.8952,-1.9015,-1.9046,-1.9144,-1.9195,-1.9252,-1.9272,-1.9331,-1.9374,-1.9423,-1.9495,-1.954,-1.9615,-1.9686,-1.972,-1.9724,-1.9814,-1.9797,-1.9796,-1.9801,-1.9841,-1.9845,-1.9848,-1.9806,-1.9806,-1.9806,0,0,-1.8973,-1.9026,-1.9077,-1.9128,-1.9205,-1.9251,-1.9263,-1.9348,-1.938,-1.9453,-1.9491,-1.9544,-1.965,-1.9701,-1.9742,-1.9784,-1.9809,-1.9802,-1.9803,-1.9841,-1.9844,-1.9847,-1.9861,-1.9866,-1.9807,-1.9807,-1.9807,0,-1.8958,-1.9045,-1.91,-1.9157,-1.9199,-1.9247,-1.9299,-1.9346,-1.9439,-1.9468,-1.9471,-1.9605,-1.9659,-1.9742,-1.9753,-1.9784,-1.98,-1.9792,-1.9839,-1.9842,-1.9846,-1.9861,-1.9866,-1.9805,-1.9805,-1.9805,-1.9806,0,-1.9022,-1.9082,-1.9114,-1.9203,-1.9249,-1.9303,-1.9367,-1.9407,-1.9439,-1.9484,-1.9559,-1.9625,-1.9701,-1.9724,-1.9756,-1.9813,-1.9813,-1.9827,-1.983,-1.9847,-1.9862,-1.9868,-1.9803,-1.9804,-1.9804,-1.9804,0,0,-1.9016,-1.9135,-1.9146,-1.9187,-1.9276,-1.9324,-1.9381,-1.9455,-1.9488,-1.9552,-1.9601,-1.9691,-1.9704,-1.975,-1.9788,-1.9821,-1.985,-1.9831,-1.9834,-1.9832,-1.9918,-1.9906,-1.9911,-1.9868,-1.987,-1.9871,-1.9911,0,-1.9049,-1.9152,-1.9203,-1.9284,-1.934,-1.9387,-1.9437,-1.9497,-1.9542,-1.9596,-1.9646,-1.9708,-1.9722,-1.9749,-1.9785,-1.9839,-1.9868,-1.9837,-1.9915,-1.9917,-1.9894,-1.9919,-1.9907,-1.9942,-1.9917,-1.9918,-1.9919,0,-1.91,-1.9162,-1.9248,-1.9331,-1.9357,-1.94,-1.9473,-1.9525,-1.9595,-1.9625,-1.9676,-1.9713,-1.9776,-1.9776,-1.9864,-1.9842,-1.9877,-1.9909,-1.9912,-1.992,-1.9918,-1.9928,-1.9954,-1.9959,-1.9929,-1.9928,-1.9927,0,-1.9086,-1.9192,-1.9257,-1.9291,-1.9389,-1.9419,-1.9462,-1.9531,-1.9572,-1.9637,-1.9664,-1.9735,-1.9773,-1.9828,-1.9883,-1.9879,-1.9966,-1.9971,-1.9993,-1.9991,-2.0008,-2.0006,-2.0039,-2.0032,-2.0032,-2.0032,-2.0032,0,-1.9116,-1.9166,-1.9252,-1.9292,-1.9351,-1.941,-1.9467,-1.9513,-1.9575,-1.9625,-1.9671,-1.9717,-1.9788,-1.9844,-1.9889,-1.9954,-1.9972,-1.9998,-2.0009,-1.9994,-1.999,-2.0017,-2.0015,-2.0033,-2.0033,-2.0033,-2.0033,0,-1.9109,-1.9169,-1.9243,-1.933,-1.9353,-1.9393,-1.9468,-1.9509,-1.9557,-1.962,-1.9639,-1.9713,-1.9781,-1.9843,-1.9933,-1.9963,-2.003,-2.0044,-2.0006,-2.0012,-2.003,-2.0027,-2.0081,-2.0092,-2.0078,-2.0078,-2.0078,0,-1.9124,-1.9164,-1.9256,-1.9292,-1.9334,-1.9393,-1.9435,-1.9496,-1.9539,-1.9622,-1.9653,-1.9725,-1.9785,-1.9892,-1.9955,-2.0025,-2.0041,-2.0055,-2.0051,-2.0035,-2.004,-2.0037,-2.0041,-2.0054,-2.0054,-2.0054,-2.0054,0,-1.9143,-1.9171,-1.923,-1.93,-1.9349,-1.9407,-1.9467,-1.9495,-1.9567,-1.9613,-1.9683,-1.973,-1.9823,-1.9893,-1.997,-2.0015,-2.0047,-2.0054,-2.0063,-2.0047,-2.0023,-2.0036,-2.0004,-2.0053,-2.0053,-2.0053,-2.0053,-2.0053,-1.9148,-1.9186,-1.9256,-1.9321,-1.9372,-1.9427,-1.9469,-1.9522,-1.9581,-1.9661,-1.9694,-1.9765,-1.9835,-1.9942,-1.9987,-2.0044,-2.005,-2.0063,-2.0066,-2.0068,-2.0065,-2.0014,-2.0059,-2.0059,-2.0059,-2.0059,-2.0059,0,-1.9169,-1.9217,-1.9276,-1.9357,-1.9408,-1.9433,-1.9501,-1.9542,-1.9604,-1.9667,-1.9725,-1.9806,-1.9875,-1.9943,-2.0016,-2.0049,-2.0065,-2.0066,-2.0064,-2.0074,-2.0056,-2.004,-2.0051,-2.0051,-2.0051,-2.0051,-2.0051,-2.0051,-1.9186,-1.9251,-1.9287,-1.9378,-1.9426,-1.9495,-1.9532,-1.9583,-1.9633,-1.9721,-1.9778,-1.9823,-1.9888,-1.9966,-2.0031,-2.005,-2.0074,-2.0071,-2.0093,-2.0075,-2.0075,-2.0075,-2.0061,-2.0076,-2.0076,-2.0106,-2.0107,-2.0107]},{"header":{"parameterUnit":"m.s-1","parameterCategory":1,"la1":30.2991,"la2":30.254,"lo1":-89.0895,"lo2":-89.0444,"dy":0.0017,"dx":0.0017,"nx":28,"ny":28,"refTime":"2024-02-12T03:00:00:Z","depth":0,"parameterNumber":3,"parameterNumberName":"V-component_of_WINDS"},"data":[0,0,0,0,0,0,0,0,0,0,0,0,0,0,0,0,0,0,0,0,0,0,0,0,0,0,0,0,0,0,0,0,0,0,0,0,0,0,0,0,0,0,0,0,0,0,0,0,0,0,0,0,0,0,0,0,0,0,4.5373,4.5375,0,4.5536,4.5538,4.554,4.5595,4.5595,4.5594,4.5593,4.5757,4.5761,4.5766,0,0,0,0,0,0,0,0,0,0,0,0,0,4.5108,4.5112,4.5373,4.5375,4.5377,4.5536,4.5538,4.554,4.5595,4.5595,4.5594,4.5593,4.5755,4.5761,4.5767,0,0,0,0,0,0,0,0,0,0,0,0,0,4.5242,4.5114,4.5373,4.5424,4.543,4.5535,4.5538,4.5541,4.5595,4.5595,4.5594,4.5593,4.5753,4.576,4.5768,4.5833,0,0,4.579,4.5794,0,0,0,0,0,0,0,0,4.5234,4.5252,4.5414,4.5421,4.5428,4.5544,4.5504,4.5639,4.5596,4.5533,4.5593,4.5592,4.5687,4.5699,4.5732,4.584,4.5847,4.5791,4.5795,4.5799,4.5801,0,0,0,0,0,0,0,4.5225,4.5245,4.5437,4.5417,4.5425,4.5438,4.5456,4.553,4.5613,4.5538,4.5542,4.5561,4.569,4.5725,4.5736,4.585,4.5791,4.5797,4.5802,4.5805,4.6022,4.6023,0,0,0,0,0,0,4.5207,4.5237,4.5432,4.5442,4.5327,4.5444,4.5464,4.5508,4.5612,4.5627,4.5562,4.5563,4.5712,4.5727,4.5742,4.5827,4.5799,4.5806,4.581,4.6021,4.6022,4.6024,0,0,0,0,0,0,4.5201,4.5224,4.5426,4.5341,4.5368,4.5449,4.5498,4.5512,4.5546,4.563,4.5645,4.5582,4.5712,4.5732,4.5811,4.5834,4.5809,4.5816,4.6019,4.6021,4.6023,4.5997,0,0,0,0,0,0,4.5194,4.5222,4.5248,4.5341,4.5372,4.5492,4.55,4.5515,4.5559,4.5563,4.5653,4.5667,4.5713,4.5799,4.5818,4.5843,4.5821,4.6017,4.602,4.6022,4.5996,4.5998,4.5999,0,0,0,0,0,4.5184,4.5233,4.5249,4.5272,4.5406,4.5493,4.5511,4.5563,4.5561,4.5588,4.5642,4.5665,4.5828,4.5807,4.5828,4.5856,4.6016,4.6019,4.6022,4.5995,4.5997,4.5999,0,0,0,0,0,0,4.5139,4.5246,4.5265,4.5346,4.541,4.5502,4.5538,4.5563,4.5629,4.5629,4.569,4.571,4.5785,4.5828,4.5803,4.5926,4.5923,4.5931,4.5895,4.5898,4.5899,4.5888,4.5828,0,0,0,0,0,4.5138,4.5201,4.5291,4.5353,4.5385,4.5455,4.5495,4.553,4.5599,4.5626,4.5686,4.5751,4.5818,4.586,4.5925,4.6002,4.6023,4.6032,4.6033,4.6034,4.604,4.6086,4.6091,4.6033,4.6033,4.6033,0,0,4.5138,4.5204,4.5239,4.5346,4.54,4.5463,4.5478,4.5544,4.5591,4.5636,4.5715,4.5761,4.5838,4.5916,4.5954,4.5955,4.6061,4.6038,4.6038,4.6044,4.609,4.6095,4.61,4.6035,4.6035,4.6035,0,0,4.517,4.5225,4.5285,4.5339,4.5422,4.5469,4.5483,4.5572,4.5605,4.5685,4.5721,4.5777,4.5889,4.5944,4.5986,4.6039,4.6063,4.6058,4.6067,4.6111,4.6115,4.612,4.6141,4.6147,4.6064,4.6064,4.6064,0,4.5159,4.5256,4.5312,4.5377,4.5423,4.5467,4.5528,4.5578,4.5676,4.5707,4.5707,4.585,4.5904,4.5997,4.6011,4.6042,4.6061,4.6049,4.611,4.6115,4.612,4.6141,4.6148,4.6063,4.6063,4.6063,4.6063,0,4.5239,4.5306,4.5344,4.5441,4.5491,4.5553,4.5618,4.5662,4.5692,4.5739,4.5821,4.5888,4.5969,4.5993,4.6022,4.6091,4.6089,4.6098,4.6097,4.6124,4.6144,4.6153,4.6061,4.6062,4.6062,4.6062,0,0,4.5248,4.5375,4.5389,4.5434,4.5528,4.5581,4.5645,4.5725,4.5763,4.5829,4.5885,4.5979,4.599,4.6037,4.6073,4.6111,4.6152,4.6117,4.6119,4.6123,4.6233,4.6227,4.6235,4.6167,4.6169,4.617,4.6227,0,4.5294,4.5413,4.5465,4.556,4.5623,4.5666,4.5723,4.5786,4.5832,4.5892,4.5941,4.6008,4.6015,4.6045,4.6084,4.6138,4.6175,4.6135,4.6221,4.6223,4.6202,4.6245,4.6239,4.6289,4.6235,4.6237,4.6238,0,4.5364,4.5433,4.5534,4.5623,4.5651,4.5701,4.578,4.5836,4.5909,4.594,4.5994,4.6028,4.6097,4.609,4.6187,4.6158,4.6196,4.6228,4.6231,4.6243,4.6233,4.626,4.6306,4.6315,4.6251,4.6249,4.6249,0,4.5363,4.5481,4.5557,4.5594,4.5699,4.5733,4.5778,4.585,4.5896,4.5964,4.5994,4.6068,4.6109,4.6166,4.622,4.6209,4.6312,4.6308,4.634,4.6338,4.6361,4.6359,4.6416,4.6381,4.6381,4.6381,4.6381,0,4.541,4.5471,4.5559,4.5606,4.5676,4.5734,4.5801,4.5849,4.5913,4.5971,4.6011,4.6064,4.6131,4.6192,4.6234,4.6308,4.6326,4.6352,4.6363,4.635,4.6347,4.6377,4.6376,4.6383,4.6383,4.6382,4.6382,0,4.5422,4.5483,4.5569,4.5662,4.5686,4.5734,4.5813,4.586,4.5907,4.5979,4.5999,4.6074,4.6148,4.6207,4.6302,4.6331,4.641,4.642,4.6386,4.6392,4.642,4.6418,4.65,4.6515,4.6468,4.6469,4.6469,0,4.5449,4.5497,4.5595,4.5637,4.5682,4.5749,4.5796,4.5855,4.5903,4.5991,4.6027,4.6105,4.617,4.6286,4.6348,4.6422,4.6436,4.646,4.6447,4.6433,4.6439,4.6437,4.6442,4.6462,4.6462,4.6462,4.6462,0,4.5492,4.552,4.5587,4.5665,4.5721,4.5785,4.5849,4.5881,4.5952,4.6003,4.608,4.6131,4.623,4.6306,4.6387,4.6432,4.646,4.6466,4.6477,4.6465,4.6444,4.6458,4.6392,4.6464,4.6464,4.6464,4.6463,4.6463,4.5514,4.5559,4.5636,4.571,4.5765,4.5825,4.5875,4.5929,4.5995,4.6081,4.6112,4.6191,4.6264,4.6375,4.6421,4.6484,4.6486,4.6502,4.6507,4.651,4.651,4.6432,4.6498,4.6499,4.6499,4.6499,4.6499,0,4.556,4.5612,4.5679,4.577,4.5828,4.5849,4.5922,4.5969,4.6039,4.6105,4.6169,4.6258,4.6332,4.64,4.6478,4.6515,4.653,4.6534,4.6533,4.6543,4.6503,4.6486,4.6521,4.6521,4.6521,4.6521,4.6521,4.6521,4.5592,4.5671,4.5708,4.5815,4.5866,4.5946,4.5986,4.6042,4.6095,4.6193,4.6256,4.63,4.6367,4.645,4.652,4.6538,4.6565,4.6566,4.6588,4.6549,4.6546,4.6543,4.6528,4.6571,4.6571,4.6624,4.6624,4.6625]}]]